Dewpoint
54 54 54 54 54 54 54 55 55 55 56 56 56 56 57 57 57 57 57 58 58 58 57 58 58 58 58 58 59 59 58 54 50 46 43 47 54 72 70 74 74 75 77 67 59 52 52 56 57 54 51 48 49 47 47 51 49 50 50 46 44 38 51 44 36 35 33 32 31 33 34 37 39 42 42 44 42 42 46 47 49 50 53 57 58 60 61 62
54 54 53 53 54 54 54 54 54 55 55 55 56 56 56 56 57 57 57 57 57 57 57 57 57 57 58 58 58 59 57 54 48 41 36 50 68 71 70 74 74 77 75 57 51 50 49 54 56 53 50 48 49 46 45 46 49 41 47 45 40 37 41 39 36 34 34 34 35 34 34 34 37 33 38 41 41 41 45 46 46 50 54 58 59 60 61 62
53 53 53 53 53 53 54 53 54 55 55 55 56 56 56 56 56 57 57 57 56 57 57 57 57 57 58 58 58 58 56 48 46 36 30 70 70 73 73 74 74 77 63 49 49 48 48 54 53 51 51 48 46 44 44 44 44 39 48 48 43 43 37 38 39 39 40 38 36 34 33 34 34 32 40 40 39 39 44 44 44 53 56 58 59 60 61 62
53 53 53 53 53 53 53 54 54 54 54 55 55 55 55 56 56 56 56 56 56 57 57 57 57 58 57 58 58 57 54 51 36 33 51 70 72 74 71 73 75 76 56 44 47 46 49 49 53 53 48 43 41 41 41 39 39 39 38 41 44 39 39 46 37 37 39 40 39 38 38 33 33 33 35 39 37 38 44 43 47 53 57 57 58 60 61 60
53 53 53 53 53 53 53 53 54 54 55 55 55 55 56 56 56 56 56 56 56 57 57 57 57 57 57 58 58 55 51 33 25 35 44 68 73 70 72 72 74 63 54 47 46 45 48 47 45 45 43 40 36 37 36 39 37 39 37 39 40 39 38 42 39 37 37 41 41 40 39 35 35 31 36 36 38 35 42 43 49 54 56 57 57 60 60 61
53 52 52 53 53 53 53 53 54 54 55 55 55 55 55 55 55 55 56 56 56 56 56 57 57 57 58 58 56 51 44 21 24 32 66 71 72 72 71 73 74 61 53 51 47 44 45 43 40 40 40 37 33 32 35 34 37 32 37 39 38 40 40 38 39 37 36 38 41 40 41 37 36 32 37 35 36 35 43 44 51 53 58 60 60 59 60 60
52 52 52 52 53 53 53 53 53 54 54 54 55 55 55 55 55 55 55 55 56 56 56 57 57 57 58 58 55 50 37 31 28 42 71 73 73 73 74 75 75 60 53 49 50 47 41 39 37 37 39 37 31 31 31 33 32 32 31 38 38 38 39 42 33 36 33 38 40 40 43 40 38 33 36 36 38 36 42 46 50 54 56 57 58 59 58 59
52 52 52 52 52 53 53 53 53 54 53 54 54 55 55 55 55 55 55 55 56 56 57 57 57 57 58 54 43 41 45 40 38 44 73 74 70 69 71 56 56 52 55 50 47 45 40 35 34 35 36 34 31 29 30 28 27 29 27 34 36 38 41 38 34 35 34 33 39 41 40 41 39 36 36 36 35 37 41 48 51 53 54 56 57 58 58 60
51 52 52 52 52 53 53 53 53 54 54 54 54 54 54 55 55 55 55 55 56 56 57 57 57 58 58 55 32 16 18 20 40 43 59 56 52 52 48 45 50 46 51 52 47 42 37 32 32 34 33 33 33 28 29 26 24 23 23 27 31 35 37 36 35 34 34 33 39 39 36 40 38 39 35 35 32 37 41 49 51 52 53 55 56 56 58 59
52 52 52 52 53 53 53 53 53 54 54 54 54 54 54 54 54 55 55 55 56 56 57 57 58 58 56 53 33 22 21 28 40 42 48 46 42 44 39 37 44 44 44 46 45 40 35 30 29 30 32 32 31 29 28 27 21 23 22 25 29 32 34 35 34 33 34 32 37 37 36 39 40 40 34 37 33 38 41 47 50 51 52 54 55 55 57 57
51 51 52 52 52 52 53 53 53 53 54 54 53 53 53 54 54 55 55 55 56 56 57 58 58 58 52 48 31 17 22 26 25 34 44 40 42 41 36 36 39 40 39 40 39 37 35 32 28 26 25 27 30 30 25 25 23 22 22 23 28 29 31 31 32 32 32 32 35 35 36 38 40 37 37 37 34 36 41 46 49 51 52 53 53 54 60 58
51 51 51 52 52 52 52 53 53 53 54 53 53 53 53 54 53 54 54 55 56 57 58 59 59 56 53 44 34 29 24 25 25 26 31 36 40 42 40 36 39 35 34 35 36 35 32 30 28 25 22 27 28 30 27 25 23 21 20 15 19 24 28 30 29 30 28 29 33 35 36 37 39 34 41 39 37 36 41 44 45 49 50 54 53 53 59 57
51 51 51 51 52 52 52 53 53 53 53 53 53 53 53 53 53 53 54 55 56 57 58 59 59 55 52 41 35 27 25 24 23 24 25 33 33 32 37 38 39 39 35 33 34 34 30 24 22 21 22 21 23 26 26 23 21 20 20 20 19 22 22 24 26 23 26 26 32 34 32 36 37 36 42 41 38 36 40 43 44 46 49 52 52 53 56 56
51 52 52 52 52 52 52 53 53 53 53 53 53 53 52 52 53 54 54 55 57 58 59 60 57 55 51 38 27 22 22 27 28 29 27 28 31 29 28 29 30 33 36 35 32 31 29 24 20 17 18 18 19 21 21 21 20 18 19 20 21 19 20 24 24 26 25 28 32 34 32 36 37 37 40 42 40 36 38 41 41 44 48 48 50 52 56 56
51 51 51 51 52 52 52 52 52 52 53 53 52 52 52 51 53 54 56 56 57 59 61 60 57 55 50 44 41 37 62 40 29 28 27 27 28 27 26 26 28 29 29 31 33 32 30 25 20 17 16 18 17 16 16 17 19 20 18 18 19 20 22 22 25 26 24 30 32 33 32 42 37 37 37 43 43 38 39 40 41 43 46 48 49 51 54 56
51 51 51 52 52 52 52 52 52 52 52 52 51 51 52 52 54 55 56 57 59 61 58 56 55 53 45 39 32 56 35 32 27 27 27 26 28 24 21 23 26 28 27 27 30 31 30 27 21 18 17 17 16 16 17 17 16 17 19 18 18 20 20 21 25 27 24 30 32 32 31 36 37 38 38 43 44 41 40 41 40 43 44 47 48 50 54 55
51 50 51 51 52 52 52 52 52 52 52 51 51 51 52 54 55 56 56 58 58 58 55 50 52 51 42 31 35 32 30 31 30 29 27 27 28 23 23 26 27 26 26 25 29 29 29 26 25 23 19 16 16 17 17 17 18 16 17 19 19 19 19 21 26 27 24 31 31 32 31 37 37 38 38 41 43 43 42 41 40 42 44 47 48 50 54 56
50 51 51 51 51 52 52 52 52 52 51 50 50 50 49 55 56 54 54 56 56 54 52 51 46 42 41 46 38 27 24 27 29 30 26 27 25 25 27 27 26 25 25 25 27 25 24 22 21 19 18 15 14 16 17 17 16 16 18 19 18 20 21 20 25 27 26 29 32 32 31 35 38 37 38 40 40 41 44 44 42 42 43 46 47 49 53 55
50 51 51 51 51 52 52 52 51 51 50 51 51 52 54 57 53 50 50 51 52 53 44 46 44 23 20 26 38 36 24 23 31 28 27 26 26 26 26 29 26 25 24 22 21 21 20 19 18 17 14 14 13 14 16 18 18 16 18 18 18 19 19 20 24 29 28 28 30 33 32 33 36 37 37 39 39 41 43 45 45 44 42 46 47 48 51 55
51 51 51 51 52 52 52 52 51 50 50 48 45 45 46 47 44 53 49 50 49 42 36 37 43 32 30 30 27 30 29 26 28 29 29 27 25 20 22 27 27 25 22 18 17 18 19 17 16 14 13 14 14 15 17 19 20 18 17 20 20 20 20 21 24 27 28 28 31 33 34 33 37 40 37 38 39 40 40 43 44 45 45 44 46 47 48 54
52 51 51 51 51 52 51 51 50 50 50 48 44 45 32 25 19 14 18 17 17 29 41 41 37 39 37 34 28 24 25 28 28 27 27 28 23 22 19 23 25 23 21 18 14 19 17 17 14 14 13 14 14 16 18 19 17 16 17 18 18 20 19 21 24 26 27 27 31 34 34 35 39 41 37 39 38 37 37 41 43 45 46 46 49 49 49 51
51 51 51 51 52 51 51 50 50 50 50 49 47 44 28 24 24 22 20 14 15 12 11 12 19 21 26 29 29 26 21 21 26 25 25 20 19 19 21 21 22 22 23 18 15 17 16 13 13 13 12 11 11 13 16 17 15 16 18 19 18 20 21 21 23 26 28 28 29 32 33 34 35 38 40 39 38 40 39 41 42 45 46 49 48 49 51 50
51 51 52 52 51 51 50 51 49 50 49 45 40 21 19 27 25 27 23 18 16 15 14 12 9 10 11 15 20 21 19 17 18 25 24 22 18 16 18 21 20 21 22 19 13 12 14 12 10 11 9 7 7 8 10 14 16 18 18 18 18 19 20 20 21 23 28 29 27 32 31 33 36 37 39 41 40 41 42 41 41 42 46 48 47 49 51 51
51 51 51 52 51 50 51 49 49 49 49 37 21 17 27 25 25 25 20 16 14 15 12 12 12 8 7 8 12 15 15 16 14 14 25 20 15 16 16 21 19 19 20 20 16 10 10 12 9 8 7 5 4 6 8 11 15 17 16 16 17 17 20 22 21 21 27 29 29 29 33 34 35 34 35 43 42 42 42 42 44 45 44 46 46 47 50 50
52 52 52 52 51 51 49 49 46 28 32 25 24 28 27 29 30 26 22 25 24 24 23 15 10 11 9 8 8 10 12 13 12 11 16 17 15 16 17 20 21 17 17 20 18 13 9 9 9 6 6 4 4 4 6 8 11 14 16 16 16 17 20 21 21 20 25 28 29 28 35 34 37 36 35 37 41 43 44 45 44 49 47 48 46 48 50 51
52 52 52 51 51 51 49 40 35 34 33 28 26 26 26 22 25 29 24 26 17 13 12 18 14 9 12 6 6 8 9 8 10 9 10 12 20 17 18 17 21 18 16 16 16 17 12 9 8 6 4 3 1 1 4 7 10 13 16 18 17 17 18 20 21 21 23 27 30 30 30 32 36 36 37 39 39 42 45 46 44 48 51 47 48 48 47 48
52 52 52 51 51 50 40 26 35 38 33 23 25 26 24 22 40 26 28 24 23 21 15 13 11 9 12 8 6 7 6 8 10 9 8 12 13 17 16 15 17 18 17 16 17 14 16 12 7 7 5 2 -0 -1 1 5 8 11 15 17 17 16 16 18 21 21 22 24 28 30 31 33 33 35 38 39 40 40 44 46 47 45 49 45 46 45 51 49
52 52 51 51 50 50 45 43 42 37 32 29 30 26 27 33 34 26 28 22 15 15 13 12 14 13 10 7 6 10 10 16 7 8 8 7 12 15 16 15 14 16 17 16 13 14 14 13 9 7 7 3 -0 -2 -0 2 5 8 12 14 15 15 16 17 19 20 21 26 29 29 31 34 34 37 40 39 39 41 44 44 47 48 48 48 48 45 49 49
52 52 52 51 50 49 48 45 42 38 33 33 32 32 28 33 24 25 23 21 19 15 21 14 28 16 14 11 11 13 9 11 15 11 9 8 10 14 14 15 15 15 17 16 14 14 13 14 12 9 5 3 2 -1 -3 1 3 7 10 13 14 15 16 17 18 18 23 25 27 29 29 32 33 36 35 38 38 39 40 43 43 46 48 49 47 48 48 50
52 52 52 51 48 44 39 34 32 39 38 37 36 35 28 23 22 23 17 17 15 11 20 22 20 18 16 14 15 15 12 9 16 14 11 9 12 16 16 16 14 15 16 17 15 14 14 20 20 11 6 6 8 4 -0 -1 1 5 9 10 12 13 16 20 19 24 25 24 28 22 25 29 31 35 37 38 38 39 39 42 43 47 47 48 49 48 47 49
52 51 51 50 45 41 40 35 31 28 31 39 36 31 26 24 17 20 17 15 14 13 23 23 19 20 18 19 16 16 13 11 17 19 16 16 16 18 17 16 15 13 15 16 16 15 14 14 14 14 14 9 7 1 -2 -3 -3 2 6 9 12 17 17 23 23 27 23 20 26 22 22 26 29 33 36 39 40 38 38 39 41 41 46 48 49 46 45 47
50 50 50 49 46 46 41 29 25 24 35 37 32 27 18 12 14 15 16 16 14 14 15 19 18 19 19 21 19 16 12 12 18 20 20 17 18 18 17 16 15 13 13 15 15 17 13 12 13 14 23 13 8 -0 -2 -1 -2 -1 3 11 11 14 17 17 20 19 20 17 20 19 22 23 28 33 34 35 36 38 39 37 37 38 41 46 44 45 48 48
49 49 49 48 48 46 46 41 37 41 43 37 30 26 18 13 17 12 12 14 13 14 12 16 17 17 18 19 18 17 15 12 17 20 20 19 18 18 17 15 15 13 12 13 14 15 15 14 12 13 14 18 10 -1 2 0 -4 -6 2 10 13 14 16 18 17 21 21 18 17 19 21 22 27 30 33 32 35 37 37 38 37 38 41 46 47 50 47 50
49 49 47 47 46 44 43 45 45 43 40 41 33 22 17 13 14 24 13 12 13 13 13 12 13 16 17 17 17 16 15 15 16 18 20 20 18 18 17 15 14 14 11 10 11 12 15 15 12 12 13 13 9 3 2 1 -2 3 5 5 14 19 14 18 17 16 18 20 19 17 17 26 23 29 29 32 34 36 35 35 40 42 42 50 48 50 49 50
49 48 48 46 45 45 47 45 42 39 41 37 27 19 13 14 14 12 13 13 13 13 13 12 13 12 14 16 17 16 15 16 15 16 18 18 17 16 16 15 14 13 13 10 12 15 12 14 14 12 13 12 8 6 6 4 3 5 5 6 9 14 17 14 17 16 16 17 16 23 22 25 24 38 32 33 31 34 34 35 37 42 41 42 42 42 45 47
47 43 42 41 39 37 34 41 42 40 41 34 26 18 12 13 11 11 12 13 13 12 12 12 11 11 12 13 17 16 15 14 16 15 15 17 17 16 14 14 12 11 12 15 14 12 15 13 14 15 13 12 11 9 7 5 3 0 -1 1 3 7 8 17 21 15 18 20 22 25 23 24 25 25 26 31 31 33 35 33 32 38 39 45 43 42 45 44
42 43 40 41 41 39 34 38 41 42 40 33 22 17 15 11 11 10 19 11 11 11 11 10 11 10 11 11 13 15 15 13 13 16 17 16 17 17 15 13 13 11 11 16 13 10 13 15 15 16 16 14 12 12 9 6 3 -1 -4 -4 0 3 5 17 15 21 15 16 21 18 20 21 23 25 29 30 31 31 34 34 32 37 38 39 37 45 46 44
43 43 44 44 44 43 37 38 42 42 38 33 25 32 19 14 12 9 9 8 7 7 8 9 10 10 9 10 11 14 14 11 12 14 14 15 16 19 17 16 13 12 12 13 14 11 9 11 14 16 16 15 11 11 10 8 5 1 -5 -5 -3 5 9 18 21 14 12 14 21 21 18 21 24 28 26 28 29 30 34 37 34 33 36 38 36 45 48 50
44 43 39 34 36 37 38 45 42 41 37 31 28 26 23 20 19 16 12 7 7 6 5 5 7 10 10 9 12 13 13 11 12 10 10 10 11 16 18 17 15 13 14 14 10 10 10 7 9 13 15 12 10 10 12 9 8 4 1 -4 -1 4 10 13 16 18 22 19 21 18 19 22 27 24 24 25 30 34 30 34 32 32 33 35 36 40 51 49
39 34 29 28 35 40 44 40 33 34 32 31 30 26 24 20 19 18 16 15 12 11 6 5 5 7 11 10 10 12 13 11 11 11 9 10 9 12 15 17 16 15 14 15 12 9 11 21 12 9 15 13 11 11 10 9 6 4 1 -1 -2 -2 2 7 8 11 17 23 21 19 16 22 27 23 22 28 35 35 33 36 39 35 33 30 32 35 48 48
36 34 30 30 29 39 39 37 33 26 26 27 28 28 28 26 24 21 18 16 12 10 8 6 3 4 8 13 12 9 10 11 11 10 9 10 10 13 13 15 16 14 14 14 13 10 14 14 15 13 11 14 11 12 12 10 7 4 1 -1 -4 -3 10 11 12 9 13 18 23 19 17 27 20 18 30 31 34 26 29 35 38 35 30 37 37 36 43 44
37 32 26 30 32 35 33 29 30 30 24 21 20 23 24 32 24 24 25 24 18 12 10 7 6 4 3 7 14 13 10 8 8 9 10 10 11 11 12 14 15 15 13 16 14 12 16 16 14 14 12 12 14 13 14 14 12 9 5 -1 -4 -4 4 10 13 13 11 14 15 19 18 24 28 30 36 31 30 25 31 33 33 32 33 32 35 30 47 48
33 31 34 34 33 30 29 27 29 27 23 22 23 20 19 19 19 21 22 22 21 21 15 10 8 5 4 3 5 13 14 10 8 6 6 10 12 12 12 13 14 14 14 14 14 15 44 14 15 15 20 16 15 14 15 16 14 9 6 2 -5 -7 -4 1 7 15 13 14 15 16 22 19 20 42 38 27 42 24 31 28 37 28 29 33 35 33 47 48
35 33 32 33 33 30 27 20 21 20 18 18 19 18 19 17 17 17 18 20 21 19 18 14 9 8 8 4 3 7 9 11 10 9 8 6 8 13 12 12 10 11 14 16 19 16 16 24 19 18 22 22 19 15 11 12 12 10 7 6 3 -3 -3 -0 4 20 17 12 13 16 19 17 24 36 47 32 26 23 24 22 27 31 35 30 32 40 54 54
36 34 32 32 35 30 21 21 20 19 19 17 15 17 17 17 17 17 16 16 19 21 20 17 13 8 8 7 5 4 6 5 10 9 9 9 9 8 10 11 12 14 14 17 49 16 16 19 24 16 20 19 20 16 13 14 12 11 12 7 6 2 3 1 1 15 15 33 30 17 17 29 29 38 33 32 30 39 29 23 25 29 43 31 33 50 55 58
33 29 29 28 26 24 26 24 20 20 21 23 27 29 29 26 26 25 25 16 16 17 20 20 16 11 7 5 6 4 4 3 4 9 12 10 11 11 10 11 12 15 34 54 48 24 20 21 26 28 22 19 22 30 18 17 13 10 8 8 5 3 1 3 9 8 3 22 24 30 32 29 30 21 32 24 28 29 27 32 31 36 33 50 63 61 59 61
40 32 30 27 26 25 23 24 24 27 32 31 31 31 29 28 26 24 25 27 19 15 16 17 19 15 12 9 7 4 2 3 6 6 6 7 11 12 14 12 10 23 56 42 34 25 33 23 22 35 28 24 19 23 17 16 12 10 8 7 7 6 5 5 4 1 26 22 15 31 46 28 26 25 31 34 27 33 36 38 32 35 44 39 40 59 63 58
34 33 33 33 28 26 24 24 25 34 33 32 28 29 29 28 26 23 24 26 27 27 27 28 29 32 20 14 14 11 9 8 10 6 4 6 10 11 13 14 13 37 46 26 27 27 25 21 19 19 19 17 15 19 20 15 10 12 10 8 7 7 6 5 15 5 24 12 9 32 43 38 30 18 19 31 41 38 25 28 29 33 33 44 64 56 54 52
35 35 32 33 31 29 29 27 26 25 25 26 29 28 27 27 26 24 23 24 24 25 26 27 28 29 30 31 32 33 37 16 8 12 14 9 10 12 13 14 13 15 20 19 21 34 29 22 24 18 20 19 18 17 18 19 16 13 12 9 5 4 4 3 2 2 3 29 27 23 41 31 16 18 20 23 31 27 29 35 34 36 29 54 52 52 37 47
35 33 35 35 36 34 32 29 28 27 26 31 28 25 24 26 27 27 25 24 23 22 22 26 27 29 31 31 33 31 32 32 31 31 29 20 8 14 12 15 15 12 12 16 18 29 24 26 30 23 24 19 18 21 19 18 19 18 11 11 12 7 4 4 2 2 9 8 4 7 28 31 20 30 27 26 31 27 32 28 23 36 34 28 33 30 35 31
36 39 40 39 35 33 33 30 28 31 26 27 26 24 21 20 23 25 25 27 24 22 22 23 25 29 29 30 31 31 32 32 32 31 31 30 29 30 18 14 12 16 14 15 18 21 23 24 24 26 26 25 23 20 20 19 19 19 19 16 15 15 16 9 10 8 11 21 21 9 23 23 22 23 18 28 30 32 28 35 37 40 30 38 36 33 35 44
40 39 42 41 34 36 33 31 30 32 23 23 23 24 25 23 19 22 25 25 26 30 33 25 29 29 29 30 31 31 31 31 31 32 32 31 31 30 30 30 21 14 14 14 18 16 22 22 24 24 24 26 22 19 17 20 21 19 20 19 19 15 16 14 11 13 15 11 10 16 14 22 32 33 24 25 15 25 28 25 31 34 49 40 39 39 36 38